Location: Albany
(35.0000°S, 118.0000°E)
Time: 13:02:31
(UTC-05:00)

CZ-4B R/B - Visible Passes

Search period start: 06 December 2016 00:00
Search period end: 16 December 2016 00:00
Orbit: 488 x 658 km, 97.7° (Epoch: 06 December)

Date Brightness Start Highest point End Pass type
(mag) Time Alt. Az. Time Alt. Az. Time Alt. Az.
06 Dec 3.9 13:51:42 10° NNE 13:55:37 49° ESE 13:59:49 10° S visible
07 Dec 3.7 13:54:23 10° NNE 13:58:22 53° ESE 14:02:37 10° S visible
08 Dec 3.6 13:57:04 10° NNE 14:01:06 58° ESE 14:05:25 10° S visible
09 Dec 3.4 13:59:49 10° NNE 14:03:51 63° ESE 14:08:12 10° S visible
10 Dec 3.3 14:02:33 11° NNE 14:06:35 69° ESE 14:11:00 10° S visible
11 Dec 3.2 14:05:18 11° NNE 14:09:20 74° ESE 14:13:47 10° S visible
12 Dec 3.1 14:08:03 11° NNE 14:12:04 81° E 14:16:34 10° S visible
13 Dec 3.1 14:10:49 11° NNE 14:14:50 87° ESE 14:19:21 10° S visible
14 Dec 3.0 14:13:34 12° NNE 14:17:35 87° WNW 14:22:07 10° SSW visible
15 Dec 3.0 14:16:20 12° N 14:20:20 81° WNW 14:24:53 10° SSW visible
